Regional Weather Roundup
Issued by NWS

Home | Current Version | Previous Version | Graphics & Text | Print | Product List | Glossary On
Versions: 1 2 3 4 5 6 7 8 9 10 11 12 13 14 15 16 17 18 19 20 21 22 23 24 25 26 27 28
000
ASUS45 KBOU 172310
RWRCO

WEATHER ROUNDUP FOR COLORADO
NATIONAL WEATHER SERVICE DENVER/BOULDER CO
400 PM MST SUN DEC 17 2017

NOTE: "FAIR" INDICATES FEW OR NO CLOUDS BELOW 12000 FEET WITH NO
SIGNIFICANT WEATHER AND/OR OBSTRUCTIONS TO VISIBILITY.

COZ001>005-013-030-031-180000-
...NORTHWEST COLORADO...

CITY           SKY/WX    TMP DP  RH WIND       PRES   REMARKS
CRAIG          FAIR      31  19  61 SW3       30.05R
HAYDEN         FAIR      31  21  66 CALM      30.05R
MEEKER         FAIR      38  19  46 NW3       30.02R
RABBIT EARS PA FOG       18  14  86 W13G18    29.96R VSB 1/2 WCI   4
STEAMBOAT SPGS FAIR      29  19  67 CALM      30.03R
WALDEN         FAIR      27  16  63 S13G18    29.98S WCI  16
$$

COZ006>008-011-180000-
...WEST CENTRAL VALLEYS...

CITY           SKY/WX    TMP DP  RH WIND       PRES   REMARKS
GRAND JUNCTION FAIR      43  11  27 W5        30.02S
MONTROSE       FAIR      40   7  25 N6        30.03R
EAGLE          FAIR      39   9  29 W6        29.99R
RIFLE          FAIR      42  11  28 CALM      30.01R
DELTA          FAIR      45   8  21 S8        30.02S
NUCLA          FAIR      43   1  17 CALM      30.04S
$$

COZ017>023-064>068-180000-
...SOUTHWEST COLORADO...

CITY           SKY/WX    TMP DP  RH WIND       PRES   REMARKS
DURANGO        FAIR      45   6  20 S9        29.98R
CORTEZ         FAIR      46   7  20 SW8       30.00R
PAGOSA SPRINGS FAIR      44  -2  14 SW7       29.99S
TELLURIDE      FAIR      35   0  23 W12G17    30.03R WCI  27
WOLF CREEK PAS NOT AVBL
$$

COZ009-010-012-014-032>034-037-058>063-180000-
...CENTRAL COLORADO...

CITY           SKY/WX    TMP DP  RH WIND       PRES   REMARKS
ASPEN          FAIR      35   7  31 NW9       29.97R WCI  28
BUENA VISTA    FAIR      41   0  18 W7G15     29.92R
COPPER MTN     NOT AVBL
BERTHOUD PASS  FAIR      12   1  62 NW29G51   29.92R WCI  -9
COTTONWOOD PAS FAIR      37   0  20 W14G22    29.94S
GUNNISON       NOT AVBL
KREMMLING      FAIR      36  19  51 N5        29.98S
LEADVILLE      FAIR      28  -1  28 NW12      29.95R WCI  18
MONARCH PASS   FAIR      21   0  39 W39G47    30.08R WCI   1
SALIDA         FAIR      45  -3  13 SW12      30.00R
SUNLIGHT       FAIR      21   3  45 SW8       30.04R WCI  12
WILKERSON PASS FAIR      28  -4  24 SW17G24   29.96R WCI  16
$$

COZ069>075-180000-
...SAN LUIS VALLEY/SANGRE DE CRISTO MOUNTAINS...

CITY           SKY/WX    TMP DP  RH WIND       PRES   REMARKS
ALAMOSA        FAIR      41  11  29 S6        29.94S
DEL NORTE      FAIR      38   9  29 E6        29.96R
LA VETA PASS   FAIR      32   7  34 SW12G24     N/A  WCI  23
SAGUACHE       FAIR      37   7  28 E3        29.97R
$$

COZ035-036-038>040-180000-
...NORTHERN COLORADO FRONT RANGE...

CITY           SKY/WX    TMP DP  RH WIND       PRES   REMARKS
DENVER INTL AP MOCLDY    38  21  50 SE9       29.87S
DMNS CITY PARK NOT AVBL
AURORA         MOCLDY    37  22  55 NE7       29.89R
FRONT RANGE AP MOCLDY    39  27  60 E14       29.89S
ERIE MUNI ARPT FAIR      39  24  55 CALM      29.94S
BOULDER MUN AP FAIR      37  27  65 CALM      29.88R
CENTENNIAL     MOCLDY    38  24  57 CALM      29.87S
BROOMFIELD     PTCLDY    39  25  56 SE3       29.89R
FORT COLLINS   FAIR      35  26  69 S5        29.89S WCI  31
LONGMONT       FAIR      41  26  57 SE6       29.91R
$$

COZ041-046-047-076>085-087-088-180000-
...PIKES PEAK/PALMER DIVIDE AND SOUTHERN FOOTHILLS...

CITY           SKY/WX    TMP DP  RH WIND       PRES   REMARKS
COLO. SPRINGS  MOCLDY    32  23  69 S6        29.93R WCI  26
A. F. ACADEMY  FAIR      31  21  67 S6        29.90R WCI  25
SCHRIEVER AFB  FAIR      31  22  69 SW7       29.93R WCI  24
CHEYENNE MTN   MOCLDY    28  23  79 SE7       29.85R WCI  21
ELLICOTT         N/A    N/A N/A N/A SW7       29.91R
FALCON         FAIR      28  21  74 S7        29.92R WCI  21
FORT CARSON    FAIR      34  23  62 S6        29.91R WCI  29
LIMON          FAIR      36  23  59 S10       29.91R
MONUMENT HILL  FAIR      32  23  69 S7        29.89R WCI  26
CANON CITY     FAIR      37  27  65 E6        29.93R
WALSENBURG     FAIR      41  25  52 SE8       29.91S
TRINIDAD       FAIR      39  24  55 E5        29.93R
$$

COZ042>045-048>051-090-091-180000-
...NORTHEAST COLORADO...

CITY           SKY/WX    TMP DP  RH WIND       PRES   REMARKS
GREELEY ARPT   FAIR      38  26  62 S3        29.91R
AKRON          FAIR      35  24  64 SW7       29.90S WCI  29
BURLINGTON     FAIR      37  27  67 W7        29.95R
WRAY           FAIR      36  27  69 SW5       29.94R
YUMA           FAIR      34  27  75 SW7       29.92R WCI  28
STERLING       FAIR      39  27  60 SW5       29.89S
HOLYOKE        FAIR      43  27  52 SW3       29.91F
FORT MORGAN    FAIR      38  24  57 S5        29.90F
$$

COZ086-089-092>099-180000-
...SOUTHEAST COLORADO...

CITY           SKY/WX    TMP DP  RH WIND       PRES   REMARKS
PUEBLO         FAIR      38  25  59 E5        29.94R
LA JUNTA       FAIR      40  26  57 SE3       29.96R
LAMAR          FAIR      42  25  50 CALM      29.95S
SPRINGFIELD      N/A     39  26  59 CALM      29.97R
$$




USA.gov is the U.S. government's official web portal to all federal, state and local government web resources and services.